[[{"header":{"parameterUnit":"m.s-1","parameterCategory":1,"la1":30.2991,"la2":30.254,"lo1":-89.0895,"lo2":-89.0444,"dy":0.0017,"dx":0.0017,"nx":28,"ny":28,"refTime":"2024-12-14T03:00:00:Z","depth":0,"parameterNumber":2,"parameterNumberName":"U-component_of_WINDS"},"data":[0,0,0,0,0,0,0,0,0,0,0,0,0,0,0,0,0,0,0,0,0,0,0,0,0,0,0,0,0,0,0,0,0,0,0,0,0,0,0,0,0,0,0,0,0,0,0,0,0,0,0,0,0,0,0,0,0,0,-5.9375,-5.9375,0,-5.9384,-5.9384,-5.9384,-5.927,-5.9267,-5.9264,-5.9261,-5.9268,-5.9271,-5.9274,0,0,0,0,0,0,0,0,0,0,0,0,0,-5.9259,-5.9262,-5.9375,-5.9375,-5.9375,-5.9384,-5.9384,-5.9384,-5.927,-5.9267,-5.9263,-5.9259,-5.9267,-5.9271,-5.9274,0,0,0,0,0,0,0,0,0,0,0,0,0,-5.9293,-5.9263,-5.9375,-5.932,-5.9315,-5.9384,-5.9384,-5.9384,-5.9271,-5.9267,-5.9262,-5.9258,-5.9266,-5.927,-5.9275,-5.9397,0,0,-5.9289,-5.9291,0,0,0,0,0,0,0,0,-5.9291,-5.9298,-5.9328,-5.9324,-5.9318,-5.9321,-5.9346,-5.9389,-5.9272,-5.9288,-5.9261,-5.9255,-5.9289,-5.9292,-5.9304,-5.9398,-5.9398,-5.929,-5.9292,-5.9294,-5.9296,0,0,0,0,0,0,0,-5.9289,-5.9296,-5.9378,-5.9328,-5.9323,-5.9294,-5.9294,-5.9353,-5.9315,-5.9286,-5.9278,-5.9281,-5.9286,-5.9299,-5.9303,-5.9398,-5.9289,-5.9294,-5.9296,-5.9298,-5.9596,-5.96,0,0,0,0,0,0,-5.9295,-5.9295,-5.9378,-5.9379,-5.9293,-5.93,-5.93,-5.9325,-5.9314,-5.9307,-5.9284,-5.9275,-5.9294,-5.9298,-5.9303,-5.9447,-5.9294,-5.9299,-5.9301,-5.9591,-5.9597,-5.9602,0,0,0,0,0,0,-5.9292,-5.9303,-5.9378,-5.9335,-5.9342,-5.9307,-5.9336,-5.9328,-5.9341,-5.9312,-5.9305,-5.9306,-5.929,-5.9296,-5.9375,-5.9446,-5.9301,-5.9305,-5.9585,-5.9592,-5.96,-5.9736,0,0,0,0,0,0,-5.929,-5.9303,-5.9349,-5.9337,-5.9345,-5.9451,-5.9341,-5.9331,-5.935,-5.9337,-5.933,-5.9325,-5.9287,-5.9369,-5.938,-5.9449,-5.9309,-5.9578,-5.9588,-5.9597,-5.9725,-5.9747,-5.9766,0,0,0,0,0,-5.9286,-5.9386,-5.9352,-5.9362,-5.9402,-5.9455,-5.9459,-5.9415,-5.9356,-5.9402,-5.9384,-5.9325,-5.9436,-5.9378,-5.9389,-5.9461,-5.9573,-5.9585,-5.9596,-5.9715,-5.9743,-5.9766,0,0,0,0,0,0,-5.9405,-5.9383,-5.9345,-5.9444,-5.9453,-5.9435,-5.9492,-5.9445,-5.9469,-5.9457,-5.94,-5.9399,-5.9488,-5.9482,-5.9418,-5.9581,-5.9494,-5.9509,-5.9581,-5.9607,-5.9627,-5.9627,-5.9313,0,0,0,0,0,-5.9443,-5.9488,-5.9466,-5.9556,-5.9562,-5.9527,-5.9548,-5.9514,-5.952,-5.9522,-5.951,-5.9518,-5.9555,-5.958,-5.9613,-5.9724,-5.9721,-5.9779,-5.98,-5.9817,-5.983,-5.9891,-5.9916,-5.964,-5.964,-5.964,0,0,-5.9521,-5.9515,-5.9547,-5.958,-5.9582,-5.9631,-5.953,-5.9585,-5.9621,-5.953,-5.9605,-5.9597,-5.9602,-5.9699,-5.974,-5.9696,-5.9906,-5.9831,-5.9845,-5.9849,-5.9905,-5.9931,-5.9955,-5.9648,-5.9646,-5.9645,0,0,-5.9689,-5.9688,-5.9764,-5.977,-5.9776,-5.9752,-5.9771,-5.9762,-5.9753,-5.9828,-5.9762,-5.9803,-5.9868,-5.9875,-5.9887,-6.0063,-6.001,-6.0075,-6.0183,-6.0242,-6.0264,-6.0283,-6.0347,-6.0371,-6.0088,-6.0088,-6.0088,0,-5.9785,-5.9856,-5.9809,-5.9869,-5.9887,-5.9809,-5.9886,-5.9893,-5.9909,-5.9923,-5.9874,-5.9955,-5.9953,-6.0051,-6.0095,-6.0106,-6.0127,-6.0075,-6.0265,-6.0284,-6.0301,-6.0361,-6.0385,-6.0096,-6.0095,-6.0094,-6.0093,0,-5.9976,-6.0026,-6.0087,-6.0106,-6.013,-6.0199,-6.0162,-6.0192,-6.0157,-6.0139,-6.0217,-6.0212,-6.0243,-6.0264,-6.0229,-6.0359,-6.0331,-6.0275,-6.0187,-6.0336,-6.0392,-6.0415,-6.0107,-6.0104,-6.0102,-6.01,0,0,-6.0216,-6.0211,-6.0234,-6.0244,-6.0246,-6.0285,-6.0351,-6.0383,-6.041,-6.0425,-6.0479,-6.0538,-6.0486,-6.05,-6.0465,-6.0518,-6.066,-6.0455,-6.0454,-6.0494,-6.0805,-6.0848,-6.0876,-6.0625,-6.063,-6.0633,-6.0805,0,-6.038,-6.0493,-6.0454,-6.0569,-6.0617,-6.0546,-6.0603,-6.0612,-6.0597,-6.0636,-6.0619,-6.0662,-6.059,-6.0599,-6.0648,-6.0632,-6.0722,-6.0619,-6.0676,-6.0679,-6.0678,-6.0905,-6.095,-6.1112,-6.0826,-6.083,-6.0833,0,-6.0587,-6.0612,-6.0733,-6.0731,-6.0749,-6.0802,-6.083,-6.0867,-6.0876,-6.0862,-6.088,-6.0835,-6.09,-6.0814,-6.0903,-6.0835,-6.0856,-6.0853,-6.0858,-6.0861,-6.0765,-6.0916,-6.1163,-6.1188,-6.0866,-6.0864,-6.0861,0,-6.0752,-6.0816,-6.0898,-6.0908,-6.0907,-6.0946,-6.0947,-6.0951,-6.0974,-6.0999,-6.1013,-6.1045,-6.1062,-6.1088,-6.1053,-6.0993,-6.1149,-6.1058,-6.114,-6.1141,-6.1176,-6.1174,-6.1431,-6.1189,-6.1189,-6.1188,-6.1188,0,-6.094,-6.1017,-6.0972,-6.1023,-6.1107,-6.1062,-6.1147,-6.1141,-6.1146,-6.1194,-6.1134,-6.118,-6.1131,-6.1173,-6.1146,-6.1226,-6.1234,-6.1225,-6.1217,-6.1231,-6.1232,-6.1244,-6.1232,-6.1194,-6.1193,-6.1192,-6.1191,0,-6.1138,-6.1111,-6.1196,-6.1189,-6.119,-6.1253,-6.1247,-6.1293,-6.1276,-6.1338,-6.135,-6.1323,-6.137,-6.1338,-6.1384,-6.1366,-6.1472,-6.1447,-6.1469,-6.1463,-6.1547,-6.154,-6.182,-6.1856,-6.159,-6.1593,-6.1595,0,-6.126,-6.1318,-6.1319,-6.1348,-6.1354,-6.14,-6.1424,-6.1383,-6.1411,-6.1427,-6.1472,-6.1514,-6.1545,-6.1624,-6.1608,-6.1644,-6.1621,-6.1717,-6.1625,-6.1639,-6.1624,-6.1621,-6.1628,-6.1735,-6.1738,-6.1741,-6.1743,0,-6.148,-6.1465,-6.1502,-6.1537,-6.1568,-6.1592,-6.1612,-6.1638,-6.1597,-6.1631,-6.1679,-6.1704,-6.1753,-6.1796,-6.1827,-6.1827,-6.178,-6.1772,-6.1793,-6.1808,-6.1819,-6.1816,-6.152,-6.1766,-6.1763,-6.1762,-6.176,-6.1759,-6.1644,-6.1694,-6.1703,-6.1748,-6.1759,-6.178,-6.1824,-6.1814,-6.1854,-6.1891,-6.1865,-6.1923,-6.1932,-6.1969,-6.1976,-6.2021,-6.1982,-6.2012,-6.202,-6.2028,-6.2041,-6.1812,-6.2026,-6.2026,-6.2025,-6.2024,-6.2024,0,-6.1862,-6.1865,-6.1907,-6.1938,-6.1974,-6.1927,-6.1947,-6.198,-6.2033,-6.2046,-6.208,-6.2137,-6.2179,-6.2168,-6.2207,-6.2245,-6.2224,-6.2256,-6.2253,-6.2255,-6.2072,-6.2051,-6.2273,-6.2273,-6.2273,-6.2273,-6.2273,-6.2273,-6.1979,-6.2061,-6.2048,-6.2136,-6.2139,-6.2196,-6.2212,-6.2232,-6.2243,-6.231,-6.2345,-6.2339,-6.2344,-6.2382,-6.242,-6.2415,-6.2433,-6.2474,-6.2462,-6.2292,-6.2267,-6.2244,-6.2223,-6.2478,-6.2478,-6.264,-6.2642,-6.2643]},{"header":{"parameterUnit":"m.s-1","parameterCategory":1,"la1":30.2991,"la2":30.254,"lo1":-89.0895,"lo2":-89.0444,"dy":0.0017,"dx":0.0017,"nx":28,"ny":28,"refTime":"2024-12-14T03:00:00:Z","depth":0,"parameterNumber":3,"parameterNumberName":"V-component_of_WINDS"},"data":[0,0,0,0,0,0,0,0,0,0,0,0,0,0,0,0,0,0,0,0,0,0,0,0,0,0,0,0,0,0,0,0,0,0,0,0,0,0,0,0,0,0,0,0,0,0,0,0,0,0,0,0,0,0,0,0,0,0,0.2241,0.2241,0,0.2279,0.2279,0.2279,0.2349,0.2351,0.2352,0.2354,0.2386,0.2386,0.2385,0,0,0,0,0,0,0,0,0,0,0,0,0,0.2226,0.2226,0.2241,0.2241,0.2242,0.2279,0.2279,0.228,0.2349,0.2351,0.2353,0.2354,0.2386,0.2386,0.2385,0,0,0,0,0,0,0,0,0,0,0,0,0,0.2245,0.2226,0.2241,0.2281,0.2285,0.2278,0.2279,0.228,0.2349,0.2351,0.2353,0.2355,0.2386,0.2386,0.2385,0.234,0,0,0.2383,0.2383,0,0,0,0,0,0,0,0,0.2244,0.2245,0.2275,0.2278,0.2283,0.2312,0.2286,0.23,0.2348,0.2324,0.2354,0.2356,0.2359,0.2361,0.2363,0.2342,0.2343,0.2383,0.2383,0.2382,0.2382,0,0,0,0,0,0,0,0.2242,0.2244,0.2256,0.2275,0.228,0.2296,0.2301,0.2289,0.233,0.2327,0.2332,0.2336,0.2362,0.2364,0.2364,0.2343,0.2383,0.2383,0.2382,0.2382,0.229,0.2288,0,0,0,0,0,0,0.2236,0.2242,0.2255,0.2257,0.2268,0.2295,0.2301,0.23,0.233,0.2337,0.2334,0.2339,0.2364,0.2365,0.2366,0.2318,0.2382,0.2382,0.2381,0.2292,0.229,0.2287,0,0,0,0,0,0,0.2235,0.2236,0.2253,0.2251,0.2255,0.2293,0.2292,0.23,0.2302,0.2336,0.2343,0.2329,0.2365,0.2367,0.2347,0.232,0.2382,0.2381,0.2295,0.2291,0.2288,0.2219,0,0,0,0,0,0,0.2234,0.2235,0.2219,0.225,0.2254,0.2234,0.229,0.2299,0.2301,0.2308,0.2333,0.2338,0.2367,0.2348,0.2347,0.232,0.2381,0.2297,0.2293,0.2289,0.2224,0.2214,0.2205,0,0,0,0,0,0.2233,0.2196,0.2218,0.2219,0.2235,0.2233,0.2235,0.227,0.2299,0.2283,0.2305,0.2338,0.2323,0.2345,0.2344,0.2317,0.2299,0.2294,0.229,0.2228,0.2216,0.2205,0,0,0,0,0,0,0.2157,0.2201,0.2226,0.2197,0.2211,0.2244,0.2225,0.2256,0.226,0.2266,0.2308,0.2313,0.2288,0.23,0.2325,0.2277,0.2316,0.2311,0.2269,0.2258,0.2249,0.2247,0.238,0,0,0,0,0,0.2138,0.2134,0.2171,0.2142,0.2149,0.2186,0.2186,0.2212,0.2227,0.2233,0.2253,0.2265,0.2264,0.2262,0.2262,0.2226,0.2233,0.2207,0.2198,0.219,0.2185,0.217,0.2159,0.2272,0.2272,0.2272,0,0,0.2096,0.212,0.2114,0.2128,0.2142,0.2136,0.219,0.218,0.2176,0.2231,0.2215,0.223,0.2246,0.222,0.2208,0.2229,0.2156,0.2184,0.2178,0.2177,0.2164,0.2153,0.2144,0.2269,0.227,0.227,0,0,0.2019,0.2035,0.2015,0.2029,0.205,0.2076,0.2071,0.21,0.2114,0.2099,0.2141,0.2136,0.2131,0.2142,0.2147,0.2077,0.2108,0.2076,0.2027,0.2012,0.2003,0.1995,0.1972,0.1963,0.2071,0.2071,0.2071,0,0.1964,0.1958,0.2,0.1989,0.1995,0.2047,0.2027,0.2037,0.2057,0.2059,0.2082,0.2081,0.2095,0.2073,0.2056,0.2058,0.2054,0.2073,0.2001,0.1994,0.1987,0.1965,0.1956,0.2067,0.2067,0.2068,0.2068,0,0.1891,0.1886,0.1867,0.1888,0.1892,0.1875,0.1914,0.1913,0.194,0.1962,0.1948,0.1967,0.1974,0.197,0.1995,0.1952,0.1965,0.1994,0.2034,0.1972,0.1952,0.1944,0.2061,0.2063,0.2064,0.2065,0,0,0.1764,0.1812,0.1804,0.1815,0.1845,0.1841,0.1828,0.1838,0.1836,0.1848,0.1839,0.1836,0.1864,0.187,0.1896,0.1883,0.1829,0.1914,0.1915,0.1899,0.1785,0.1763,0.1753,0.1849,0.1848,0.1847,0.1784,0,0.1693,0.1676,0.1715,0.1688,0.1685,0.1736,0.1725,0.1742,0.1763,0.1763,0.1786,0.1785,0.1821,0.1825,0.1814,0.1837,0.1806,0.1842,0.1841,0.184,0.1836,0.1742,0.1719,0.1658,0.1776,0.1775,0.1774,0,0.1607,0.1619,0.1593,0.1627,0.1627,0.1617,0.163,0.163,0.165,0.1666,0.1675,0.1707,0.1697,0.1736,0.1723,0.1747,0.1749,0.176,0.1759,0.176,0.1803,0.1742,0.164,0.1631,0.1762,0.1763,0.1764,0,0.152,0.1529,0.1515,0.1523,0.1562,0.1554,0.1569,0.1592,0.1596,0.1607,0.161,0.1618,0.1623,0.1628,0.1662,0.1688,0.1645,0.1687,0.1659,0.1658,0.1648,0.1648,0.1545,0.1647,0.1647,0.1647,0.1648,0,0.1437,0.1419,0.1477,0.1469,0.1451,0.1495,0.1476,0.1496,0.1516,0.1512,0.1556,0.1551,0.1596,0.1596,0.1622,0.1608,0.1609,0.1623,0.163,0.1619,0.1618,0.1621,0.1627,0.1645,0.1646,0.1646,0.1646,0,0.1336,0.1374,0.1363,0.1402,0.1412,0.1397,0.143,0.1423,0.1449,0.1444,0.1445,0.1484,0.1487,0.1522,0.1531,0.1549,0.1525,0.1539,0.1519,0.1524,0.1494,0.1497,0.1391,0.138,0.1487,0.1486,0.1485,0,0.1281,0.1269,0.1309,0.1311,0.1325,0.1327,0.1333,0.1376,0.138,0.1404,0.1395,0.1401,0.1409,0.1411,0.144,0.1447,0.1463,0.1425,0.1464,0.1455,0.1464,0.1465,0.1465,0.1417,0.1416,0.1414,0.1413,0,0.118,0.1201,0.1208,0.1223,0.1229,0.1242,0.1257,0.1256,0.1304,0.1306,0.1311,0.1317,0.1329,0.1336,0.1349,0.1364,0.1397,0.1401,0.1396,0.1385,0.1374,0.1381,0.1497,0.1403,0.1404,0.1405,0.1406,0.1406,0.1101,0.1095,0.1122,0.113,0.1147,0.1161,0.1159,0.1186,0.1191,0.1206,0.1231,0.1232,0.1255,0.1277,0.129,0.1291,0.131,0.1301,0.1299,0.1297,0.1292,0.1374,0.1293,0.1294,0.1294,0.1294,0.1294,0,0.1004,0.1026,0.1032,0.1055,0.1061,0.1094,0.1114,0.1116,0.1118,0.1138,0.1146,0.1152,0.116,0.119,0.1201,0.1196,0.1212,0.1197,0.1198,0.1202,0.1273,0.1278,0.1185,0.1185,0.1185,0.1185,0.1185,0.1185,0.0955,0.0946,0.097,0.097,0.0991,0.0995,0.1004,0.1018,0.1034,0.104,0.1048,0.1069,0.1093,0.1106,0.1114,0.1123,0.1125,0.1107,0.112,0.1186,0.1196,0.1206,0.1211,0.1106,0.1106,0.105,0.1049,0.1049]}]]